User: anonymous   Login
Location: Ash Swamp
(41.5170°N, 74.6157°W)
Time: 22:47:46
(UTC+00:00)
Language:

IRS-1C - Orbit

View from above orbital plane
View from above orbital plane
View from above satellite
View from above satellite

Ground track
Ground track

The orbit data is extracted from the following two-line orbital elements,

1 23751U 95072A   20263.12497005 -.00000014 +00000-0 +14042-4 0  9993
2 23751 098.8270 213.3571 0000935 088.8517 271.2768 14.22632410283326
Epoch (UTC): 19 September 2020 02:59:57
Eccentricity: 0.0000935
inclination: 98.8270°
perigee height: 816 km
apogee height: 817 km
right ascension of ascending node: 213.3571°
argument of perigee: 88.8517°
revolutions per day: 14.22632410
mean anomaly at epoch: 271.2768°
orbit number at epoch: 28332

The dashed part of the orbit path shows where the satellite is in the earth's shadow,  

DLR